Ord, NE

2:56 PM CDT on August 21, 2017 (GMT -0500)
Sharp

Weather History for KODX - February, 2014

Change the Weather History Date:

Thursday, February 13, 2014

  Actual Average Record
Temperature  
Mean Temperature 37 °F 27 °F  
Max Temperature 54 °F 39 °F 68 °F (2011)
Min Temperature 20 °F 15 °F -6 °F (2007)
Degree Days  
Heating Degree Days 28 38  
Month to date heating degree days 685 503  
Since 1 July heating degree days 4479  
Cooling Degree Days 0 0  
Month to date cooling degree days 0 0  
Year to date cooling degree days 0 0  
Moisture  
Dew Point 25 °F    
Average Humidity 62    
Maximum Humidity 92    
Minimum Humidity 32    
Precipitation  
Precipitation T in 0.01 in 0.97 in (1906)
Month to date precipitation 0.14 0.23  
Year to date precipitation 0.20 0.60  
Sea Level Pressure  
Sea Level Pressure 29.75 in    
Wind  
Wind Speed 7 mph (WNW)    
Max Wind Speed 20 mph    
Max Gust Speed 25 mph    
Visibility 10 miles    
Events Rain    
T = Trace of Precipitation, MM = Missing Value Source: NWS Daily Summary

Daily Weather History Graph

Daily Weather History Graph

Search for Another Location

Airport or City:

Trip Planner

Search our weather history database for the weather conditions in past years. The results will help you decide how hot, cold, wet, or windy it might be!

Date:

Astronomy

Feb. 13, 2014 Rise Set
Actual Time 7:33 AM CST 6:06 PM CST
Civil Twilight 7:05 AM CST 6:35 PM CST
Nautical Twilight 6:32 AM CST 7:08 PM CST
Astronomical Twilight 6:00 AM CST 7:40 PM CST
Moon 5:16 PM CST (2/13) 6:27 AM CST (2/13)
Length of Visible Light 11h 30m
Length of Day
10h 33m
Waxing Gibbous, 99% of the Moon is Illuminated
Feb 13
Waxing Gibbous
Feb 14
Full
Feb 22
Last Quarter
Mar 1
New
Mar 8
First Quarter

Hourly Weather History & Observations

Time (CST) Temp. Windchill Dew Point Humidity Pressure Visibility Wind Dir Wind Speed Gust Speed Precip Events Conditions
12:53 AM 35.1 °F 26.4 °F 27.0 °F 72% 29.75 in 10.0 mi SW 12.7 mph - N/A   Overcast
1:53 AM 36.0 °F 30.3 °F 26.1 °F 67% 29.73 in 10.0 mi WSW 6.9 mph - N/A   Overcast
2:53 AM 35.1 °F 30.1 °F 26.1 °F 70% 29.74 in 10.0 mi WNW 5.8 mph - N/A   Mostly Cloudy
3:53 AM 33.1 °F 27.7 °F 25.0 °F 72% 29.75 in 10.0 mi West 5.8 mph - N/A   Clear
4:53 AM 28.9 °F 25.2 °F 24.1 °F 82% 29.78 in 10.0 mi WNW 3.5 mph - N/A   Clear
5:53 AM 21.9 °F 15.7 °F 19.9 °F 92% 29.80 in 10.0 mi NW 4.6 mph - N/A   Clear
6:53 AM 24.1 °F - 21.0 °F 88% 29.81 in 10.0 mi Calm Calm - N/A   Clear
7:53 AM 23.0 °F 17.0 °F 19.9 °F 88% 29.84 in 10.0 mi North 4.6 mph - N/A   Clear
8:53 AM 35.1 °F 31.0 °F 27.0 °F 72% 29.83 in 10.0 mi North 4.6 mph - N/A   Clear
9:53 AM 46.9 °F - 28.9 °F 50% 29.82 in 10.0 mi NNW 11.5 mph - N/A   Clear
10:53 AM 46.9 °F - 28.0 °F 48% 29.81 in 10.0 mi NW 13.8 mph 21.9 mph N/A   Clear
11:53 AM 50.0 °F - 27.0 °F 41% 29.81 in 10.0 mi NW 15.0 mph - N/A   Clear
12:53 PM 52.0 °F - 27.0 °F 38% 29.79 in 10.0 mi WNW 11.5 mph - N/A   Clear
1:53 PM 53.1 °F - 27.0 °F 37% 29.76 in 10.0 mi NW 9.2 mph - N/A   Clear
2:53 PM 53.1 °F - 26.1 °F 35% 29.74 in 10.0 mi WNW 10.4 mph - N/A   Clear
3:53 PM 53.1 °F - 25.0 °F 34% 29.73 in 10.0 mi West 12.7 mph - N/A   Clear
4:53 PM 51.1 °F - 24.1 °F 35% 29.72 in 10.0 mi West 5.8 mph - N/A   Clear
5:53 PM 44.1 °F 41.5 °F 24.1 °F 45% 29.73 in 10.0 mi SSW 4.6 mph - N/A   Clear
6:53 PM 32.0 °F 26.4 °F 21.9 °F 66% 29.74 in 10.0 mi SSW 5.8 mph - N/A   Clear
7:53 PM 34.0 °F 31.0 °F 23.0 °F 64% 29.71 in 10.0 mi East 3.5 mph - N/A   Clear
8:53 PM 34.0 °F 28.0 °F 25.0 °F 70% 29.65 in 10.0 mi ESE 6.9 mph - N/A   Clear
9:53 PM 35.1 °F 32.2 °F 28.0 °F 76% 29.64 in 10.0 mi SE 3.5 mph - 0.00 in Rain Light Rain
10:53 PM 30.0 °F 23.2 °F 27.0 °F 88% 29.65 in 10.0 mi NNW 6.9 mph - 0.00 in   Partly Cloudy
11:53 PM 30.9 °F 23.5 °F 26.1 °F 82% 29.65 in 10.0 mi East 8.1 mph - N/A   Overcast